| time (UTC) | temp F | wind direction | speed MPH | gust MPH | rain 1hr in | rain 24hr in | rain mn in | humidity % | barometer mb |
| 20260904032003 | 72 | 0 | 0.0 | 0.0 | 0.00 | 0.23 | 0.19 | 95 | 1011.2 |
| 20260904031003 | 72 | 0 | 0.0 | 0.0 | 0.00 | 0.30 | 0.19 | 95 | 1011.4 |
| 20260904030003 | 72 | 0 | 0.0 | 0.0 | 0.00 | 0.40 | 0.19 | 95 | 1011.1 |
| 20260904025003 | 72 | 0 | 0.0 | 0.0 | 0.00 | 0.48 | 0.19 | 95 | 1011.1 |
| 20260904024213 | 72 | 0 | 0.0 | 0.0 | 0.00 | 0.51 | 0.19 | 94 | 1011.1 |
| 20260904023003 | 72 | 0 | 0.0 | 0.0 | 0.00 | 0.52 | 0.19 | 94 | 1011.0 |
| 20260904022003 | 72 | 0 | 0.0 | 0.0 | 0.00 | 0.53 | 0.19 | 94 | 1011.1 |
| 20260904021003 | 72 | 0 | 0.0 | 0.0 | 0.00 | 0.53 | 0.19 | 94 | 1011.1 |
| 20260904020003 | 73 | 0 | 0.0 | 0.0 | 0.00 | 0.53 | 0.19 | 94 | 1011.4 |
| 20260904015003 | 73 | 301 | 0.0 | 1.0 | 0.00 | 0.53 | 0.19 | 93 | 1011.5 |
| 20260904014003 | 73 | 0 | 0.0 | 0.0 | 0.00 | 0.53 | 0.19 | 93 | 1011.8 |
| 20260904013003 | 74 | 0 | 0.0 | 0.0 | 0.00 | 0.53 | 0.19 | 93 | 1011.8 |
| 20260904012003 | 74 | 0 | 0.0 | 0.0 | 0.00 | 0.53 | 0.19 | 93 | 1011.9 |
| 20260904011003 | 75 | 0 | 0.0 | 0.0 | 0.00 | 0.53 | 0.19 | 95 | 1011.7 |
| 20260904010003 | 75 | 248 | 0.0 | 3.0 | 0.00 | 0.53 | 0.19 | 95 | 1011.8 |
| 20260904005213 | 75 | 145 | 0.0 | 3.0 | 0.00 | 0.53 | 0.19 | 96 | 1012.0 |
| 20260904004003 | 75 | 0 | 0.0 | 0.0 | 0.00 | 0.53 | 0.19 | 95 | 1011.5 |
| 20260904003003 | 76 | 0 | 0.0 | 0.0 | 0.00 | 0.53 | 0.19 | 95 | 1011.0 |
| 20260904002003 | 76 | 0 | 0.0 | 0.0 | 0.00 | 0.53 | 0.19 | 95 | 1011.0 |
| 20260904001003 | 76 | 0 | 0.0 | 0.0 | 0.00 | 0.53 | 0.19 | 95 | 1011.2 |
| 20260904000003 | 76 | 0 | 0.0 | 0.0 | 0.00 | 0.53 | 0.19 | 94 | 1010.9 |
| 20260903235003 | 76 | 0 | 0.0 | 0.0 | 0.00 | 0.53 | 0.19 | 94 | 1011.0 |
| 20260903234212 | 76 | 0 | 0.0 | 0.0 | 0.00 | 0.53 | 0.19 | 94 | 1011.0 |
| 20260903233003 | 77 | 0 | 0.0 | 0.0 | 0.00 | 0.53 | 0.19 | 93 | 1010.8 |
| 20260903232003 | 77 | 0 | 0.0 | 0.0 | 0.00 | 0.53 | 0.19 | 93 | 1010.9 |
| 20260903231003 | 78 | 0 | 0.0 | 0.0 | 0.00 | 0.53 | 0.19 | 93 | 1011.0 |
| 20260903230003 | 78 | 0 | 0.0 | 0.0 | 0.00 | 0.53 | 0.19 | 93 | 1011.0 |
| 20260903225003 | 78 | 0 | 0.0 | 0.0 | 0.00 | 0.53 | 0.19 | 92 | 1010.9 |
| 20260903224003 | 79 | 0 | 0.0 | 0.0 | 0.00 | 0.53 | 0.19 | 92 | 1010.8 |
| 20260903223003 | 79 | 0 | 0.0 | 0.0 | 0.00 | 0.53 | 0.19 | 91 | 1010.9 |
| 20260903222003 | 80 | 0 | 0.0 | 0.0 | 0.00 | 0.53 | 0.19 | 91 | 1010.8 |
| 20260903221003 | 80 | 0 | 0.0 | 0.0 | 0.00 | 0.53 | 0.19 | 90 | 1010.4 |
| 20260903220003 | 80 | 0 | 0.0 | 0.0 | 0.00 | 0.53 | 0.19 | 91 | 1010.4 |
| 20260903215003 | 80 | 0 | 0.0 | 0.0 | 0.00 | 0.53 | 0.19 | 91 | 1010.6 |
| 20260903214003 | 79 | 0 | 0.0 | 0.0 | 0.00 | 0.53 | 0.19 | 91 | 1010.7 |
| 20260903213003 | 79 | 0 | 0.0 | 0.0 | 0.00 | 0.53 | 0.19 | 91 | 1010.7 |
| 20260903212003 | 79 | 0 | 0.0 | 0.0 | 0.00 | 0.53 | 0.19 | 91 | 1010.5 |
| 20260903211003 | 79 | 0 | 0.0 | 0.0 | 0.00 | 0.53 | 0.19 | 90 | 1010.6 |
| 20260903210003 | 80 | 0 | 0.0 | 0.0 | 0.00 | 0.53 | 0.19 | 89 | 1010.4 |
| 20260903205003 | 80 | 0 | 0.0 | 0.0 | 0.00 | 0.53 | 0.19 | 89 | 1010.5 |
| 20260903204213 | 80 | 0 | 0.0 | 0.0 | 0.00 | 0.53 | 0.19 | 89 | 1010.7 |
| 20260903203004 | 80 | 0 | 0.0 | 0.0 | 0.00 | 0.53 | 0.19 | 87 | 1010.8 |
| 20260903202003 | 82 | 98 | 1.0 | 5.0 | 0.00 | 0.53 | 0.19 | 83 | 1010.8 |
| 20260903201003 | 83 | 48 | 1.0 | 6.0 | 0.00 | 0.53 | 0.19 | 80 | 1010.8 |
| 20260903200003 | 82 | 79 | 2.0 | 3.0 | 0.00 | 0.53 | 0.19 | 80 | 1011.1 |
| 20260903195003 | 82 | 119 | 2.0 | 4.0 | 0.00 | 0.53 | 0.19 | 81 | 1011.2 |
| 20260903194003 | 83 | 64 | 2.0 | 4.0 | 0.00 | 0.53 | 0.19 | 79 | 1011.2 |
| 20260903193003 | 82 | 66 | 1.0 | 5.0 | 0.00 | 0.53 | 0.19 | 80 | 1011.3 |
| 20260903192003 | 82 | 81 | 2.0 | 6.0 | 0.00 | 0.53 | 0.19 | 80 | 1011.4 |
| 20260903191003 | 82 | 84 | 2.0 | 4.0 | 0.00 | 0.53 | 0.19 | 80 | 1011.5 |
| 20260903190003 | 83 | 58 | 1.0 | 5.0 | 0.00 | 0.53 | 0.19 | 77 | 1011.6 |
| 20260903185003 | 82 | 35 | 2.0 | 5.0 | 0.00 | 0.53 | 0.19 | 77 | 1011.8 |
| 20260903184003 | 82 | 65 | 1.0 | 6.0 | 0.00 | 0.53 | 0.19 | 77 | 1012.1 |
| 20260903183212 | 82 | 67 | 2.0 | 5.0 | 0.00 | 0.53 | 0.19 | 78 | 1012.2 |
| 20260903182003 | 81 | 95 | 2.0 | 7.0 | 0.00 | 0.53 | 0.19 | 81 | 1012.2 |
| 20260903181003 | 81 | 76 | 2.0 | 6.0 | 0.00 | 0.53 | 0.19 | 80 | 1012.5 |
| 20260903180003 | 82 | 50 | 1.0 | 5.0 | 0.00 | 0.53 | 0.19 | 82 | 1012.4 |
| 20260903175003 | 81 | 35 | 1.0 | 7.0 | 0.00 | 0.53 | 0.19 | 80 | 1012.3 |
| 20260903174003 | 81 | 55 | 2.0 | 7.0 | 0.00 | 0.53 | 0.19 | 82 | 1012.3 |
| 20260903173003 | 80 | 79 | 2.0 | 7.0 | 0.00 | 0.53 | 0.19 | 80 | 1012.4 |
| 20260903172003 | 80 | 67 | 2.0 | 8.0 | 0.00 | 0.53 | 0.19 | 83 | 1012.6 |
| 20260903171214 | 80 | 96 | 2.0 | 8.0 | 0.00 | 0.53 | 0.19 | 82 | 1012.7 |
| 20260903170003 | 80 | 54 | 1.0 | 6.0 | 0.00 | 0.53 | 0.19 | 81 | 1012.8 |
| 20260903165003 | 79 | 46 | 1.0 | 4.0 | 0.00 | 0.53 | 0.19 | 83 | 1012.7 |
| 20260903164214 | 78 | 100 | 1.0 | 7.0 | 0.00 | 0.53 | 0.19 | 86 | 1012.8 |
| 20260903163003 | 78 | 96 | 1.0 | 6.0 | 0.00 | 0.53 | 0.19 | 86 | 1013.0 |
| 20260903162003 | 78 | 39 | 1.0 | 3.0 | 0.00 | 0.53 | 0.19 | 86 | 1013.2 |
| 20260903161003 | 77 | 31 | 1.0 | 8.0 | 0.00 | 0.53 | 0.19 | 87 | 1013.2 |
| 20260903160003 | 76 | 62 | 2.0 | 6.0 | 0.00 | 0.53 | 0.19 | 87 | 1013.5 |
| 20260903155003 | 75 | 62 | 1.0 | 5.0 | 0.00 | 0.54 | 0.19 | 90 | 1013.8 |
| 20260903154003 | 74 | 82 | 1.0 | 9.0 | 0.00 | 0.54 | 0.19 | 92 | 1014.0 |
| 20260903153003 | 74 | 66 | 2.0 | 8.0 | 0.00 | 0.55 | 0.19 | 92 | 1014.0 |
| 20260903152003 | 73 | 69 | 1.0 | 6.0 | 0.00 | 0.55 | 0.19 | 93 | 1013.9 |
| 20260903151003 | 73 | 62 | 1.0 | 5.0 | 0.00 | 0.55 | 0.19 | 93 | 1013.9 |
| 20260903150213 | 73 | 359 | 2.0 | 6.0 | 0.00 | 0.55 | 0.19 | 94 | 1013.8 |
| 20260903145003 | 72 | 74 | 1.0 | 9.0 | 0.00 | 0.55 | 0.19 | 95 | 1013.8 |
| 20260903144003 | 72 | 108 | 1.0 | 3.0 | 0.00 | 0.55 | 0.19 | 96 | 1013.9 |
| 20260903143213 | 71 | 105 | 1.0 | 4.0 | 0.00 | 0.55 | 0.19 | 96 | 1014.0 |
| 20260903142003 | 71 | 72 | 2.0 | 4.0 | 0.00 | 0.55 | 0.19 | 97 | 1014.1 |
| 20260903141003 | 70 | 100 | 2.0 | 6.0 | 0.00 | 0.55 | 0.19 | 97 | 1014.3 |
| 20260903140003 | 70 | 100 | 2.0 | 4.0 | 0.00 | 0.55 | 0.19 | 97 | 1014.4 |
| 20260903135213 | 70 | 80 | 2.0 | 4.0 | 0.00 | 0.55 | 0.19 | 98 | 1014.2 |
| 20260903134003 | 70 | 76 | 1.0 | 3.0 | 0.00 | 0.55 | 0.19 | 98 | 1014.3 |
| 20260903133003 | 70 | 83 | 1.0 | 2.0 | 0.00 | 0.55 | 0.19 | 98 | 1014.0 |
| 20260903132003 | 70 | 80 | 1.0 | 4.0 | 0.00 | 0.55 | 0.19 | 98 | 1013.7 |
| 20260903131003 | 70 | 62 | 1.0 | 6.0 | 0.00 | 0.55 | 0.19 | 98 | 1013.8 |
| 20260903130003 | 70 | 124 | 1.0 | 3.0 | 0.00 | 0.55 | 0.19 | 98 | 1013.7 |
| 20260903125212 | 69 | 127 | 1.0 | 3.0 | 0.00 | 0.55 | 0.19 | 98 | 1013.8 |
| 20260903124003 | 69 | 136 | 1.0 | 3.0 | 0.00 | 0.55 | 0.19 | 98 | 1014.0 |
| 20260903123003 | 68 | 136 | 0.0 | 2.0 | 0.00 | 0.55 | 0.19 | 98 | 1013.9 |
| 20260903122003 | 69 | 137 | 1.0 | 3.0 | 0.00 | 0.55 | 0.19 | 98 | 1013.7 |
| 20260903121003 | 68 | 140 | 0.0 | 3.0 | 0.00 | 0.55 | 0.19 | 98 | 1013.7 |
| 20260903120003 | 68 | 140 | 0.0 | 2.0 | 0.00 | 0.55 | 0.19 | 98 | 1013.5 |
| 20260903115003 | 68 | 140 | 0.0 | 2.0 | 0.00 | 0.55 | 0.19 | 98 | 1013.4 |
| 20260903114003 | 68 | 140 | 0.0 | 2.0 | 0.00 | 0.55 | 0.19 | 98 | 1013.5 |
| 20260903113214 | 68 | 140 | 0.0 | 2.0 | 0.00 | 0.55 | 0.19 | 98 | 1013.4 |
| 20260903112003 | 68 | 152 | 1.0 | 3.0 | 0.00 | 0.55 | 0.19 | 98 | 1013.0 |
| 20260903111003 | 68 | 154 | 1.0 | 2.0 | 0.00 | 0.55 | 0.19 | 97 | 1012.9 |
| 20260903110003 | 68 | 154 | 0.0 | 1.0 | 0.00 | 0.55 | 0.19 | 97 | 1012.8 |
| 20260903105213 | 68 | 154 | 0.0 | 2.0 | 0.00 | 0.55 | 0.19 | 97 | 1012.7 |
| 20260903104004 | 68 | 154 | 0.0 | 2.0 | 0.00 | 0.55 | 0.19 | 98 | 1013.2 |
| 20260903103003 | 68 | 154 | 0.0 | 2.0 | 0.01 | 0.55 | 0.19 | 98 | 1014.2 |
| 20260903102003 | 68 | 154 | 1.0 | 3.0 | 0.01 | 0.55 | 0.19 | 98 | 1013.8 |
| 20260903101003 | 68 | 163 | 1.0 | 4.0 | 0.01 | 0.55 | 0.19 | 98 | 1014.7 |
| 20260903100003 | 68 | 171 | 1.0 | 2.0 | 0.02 | 0.55 | 0.19 | 98 | 1014.7 |
| 20260903095003 | 68 | 171 | 0.0 | 1.0 | 0.02 | 0.55 | 0.19 | 98 | 1014.7 |
| 20260903094003 | 68 | 171 | 0.0 | 2.0 | 0.02 | 0.55 | 0.19 | 98 | 1014.0 |
| 20260903093213 | 68 | 171 | 0.0 | 2.0 | 0.01 | 0.54 | 0.18 | 98 | 1013.8 |
| 20260903092003 | 67 | 171 | 0.0 | 2.0 | 0.01 | 0.54 | 0.18 | 98 | 1013.9 |
| 20260903091003 | 67 | 171 | 0.0 | 1.0 | 0.01 | 0.54 | 0.18 | 98 | 1014.1 |
| 20260903090213 | 67 | 0 | 0.0 | 0.0 | 0.00 | 0.53 | 0.17 | 98 | 1013.7 |
| 20260903085003 | 67 | 171 | 0.0 | 1.0 | 0.00 | 0.53 | 0.17 | 98 | 1013.6 |
| 20260903084213 | 67 | 171 | 0.0 | 1.0 | 0.00 | 0.53 | 0.17 | 97 | 1013.2 |
| 20260903083003 | 67 | 171 | 0.0 | 2.0 | 0.00 | 0.53 | 0.17 | 97 | 1013.4 |
| 20260903082003 | 67 | 171 | 0.0 | 1.0 | 0.00 | 0.53 | 0.17 | 97 | 1013.6 |
| 20260903081003 | 67 | 171 | 0.0 | 2.0 | 0.00 | 0.53 | 0.17 | 97 | 1013.7 |
| 20260903080004 | 67 | 173 | 1.0 | 2.0 | 0.00 | 0.53 | 0.17 | 97 | 1014.0 |
| 20260903075003 | 66 | 180 | 0.0 | 2.0 | 0.01 | 0.53 | 0.17 | 97 | 1014.4 |
| 20260903074003 | 66 | 180 | 0.0 | 1.0 | 0.02 | 0.53 | 0.17 | 97 | 1014.3 |
| 20260903073003 | 67 | 181 | 0.0 | 2.0 | 0.04 | 0.53 | 0.17 | 97 | 1014.3 |
| 20260903072003 | 67 | 182 | 0.0 | 1.0 | 0.07 | 0.53 | 0.17 | 97 | 1014.3 |
| 20260903071003 | 67 | 174 | 0.0 | 2.0 | 0.08 | 0.53 | 0.17 | 97 | 1014.2 |
| 20260903070003 | 67 | 153 | 1.0 | 1.0 | 0.09 | 0.53 | 0.17 | 97 | 1014.0 |
| 20260903065003 | 67 | 153 | 0.0 | 2.0 | 0.09 | 0.52 | 0.16 | 97 | 1014.4 |
| 20260903064003 | 67 | 153 | 0.0 | 1.0 | 0.09 | 0.51 | 0.15 | 97 | 1014.6 |
| 20260903063003 | 67 | 153 | 1.0 | 2.0 | 0.08 | 0.49 | 0.13 | 97 | 1015.0 |
| 20260903062214 | 67 | 153 | 0.0 | 1.0 | 0.06 | 0.47 | 0.11 | 97 | 1016.0 |
| 20260903061003 | 67 | 153 | 0.0 | 2.0 | 0.04 | 0.45 | 0.09 | 97 | 1015.4 |
| 20260903060003 | 67 | 153 | 0.0 | 2.0 | 0.04 | 0.44 | 0.08 | 97 | 1015.0 |
| 20260903055003 | 67 | 153 | 0.0 | 1.0 | 0.05 | 0.43 | 0.07 | 97 | 1015.0 |
| 20260903054003 | 67 | 153 | 0.0 | 1.0 | 0.04 | 0.42 | 0.06 | 97 | 1015.6 |
| 20260903053213 | 67 | 153 | 0.0 | 1.0 | 0.03 | 0.41 | 0.05 | 97 | 1015.5 |
| 20260903052003 | 67 | 153 | 0.0 | 1.0 | 0.04 | 0.41 | 0.05 | 97 | 1015.7 |
| 20260903051003 | 67 | 153 | 0.0 | 1.0 | 0.04 | 0.41 | 0.05 | 97 | 1015.4 |
| 20260903050003 | 67 | 0 | 0.0 | 0.0 | 0.04 | 0.40 | 0.04 | 97 | 1015.8 |
| 20260903045003 | 67 | 189 | 1.0 | 2.0 | 0.03 | 0.38 | 0.02 | 97 | 1015.5 |
| 20260903044003 | 67 | 253 | 0.0 | 2.0 | 0.05 | 0.38 | 0.02 | 96 | 1016.0 |
| 20260903043003 | 67 | 253 | 0.0 | 2.0 | 0.06 | 0.38 | 0.02 | 96 | 1016.0 |
| 20260903042003 | 67 | 251 | 1.0 | 2.0 | 0.05 | 0.37 | 0.01 | 96 | 1016.0 |
| 20260903041003 | 67 | 239 | 0.0 | 2.0 | 0.12 | 0.37 | 0.01 | 96 | 1015.7 |
| 20260903040004 | 67 | 239 | 0.0 | 1.0 | 0.21 | 0.36 | 0.00 | 96 | 1015.4 |
| 20260903035003 | 67 | 0 | 0.0 | 0.0 | 0.28 | 0.35 | 0.35 | 96 | 1016.4 |
| 20260903034003 | 68 | 239 | 0.0 | 1.0 | 0.29 | 0.33 | 0.33 | 96 | 1016.8 |
| 20260903033003 | 68 | 239 | 0.0 | 1.0 | 0.29 | 0.32 | 0.32 | 96 | 1017.0 |